KINEIS-2C

Last updated on Sun Jun 21 2026 00:03:01 GMT+0000 (Coordinated Universal Time)

1 62929U 25028B 26171.10515420 .00001045 00000+0 16921-3 0 9991 2 62929 98.1241 225.5020 0002343 248.6652 111.4305 14.73359912 73049
UTC large
Height (km)
Speed (km/s)
/
Latitude / Longitude
Inclination (degrees)
Orbital Period (minutes)
Azimuth
Elevation
Range (km)
Doppler Factor

Next 0 passes for location: London (51.5072 / 0.1276)

No passes found over London.
KINEIS-2C